Regional Weather Roundup
Issued by NWS

Home | Current Version | Previous Version | Text Only | Print | Product List | Glossary Off
Versions: 1 2 3 4 5 6 7 8 9 10 11 12 13 14 15 16 17 18 19 20 21 22 23 24 25 26 27 28 29 30 31 32 33 34 35 36 37 38 39 40 41 42 43 44 45 46 47 48 49 50

000
ASUS45 KBOI 221210
RWRID
WEATHER ROUNDUP FOR IDAHO
NATIONAL WEATHER SERVICE BOISE ID
500 AM MST MON DEC 22 2014

NOTE: "FAIR" INDICATES FEW OR NO CLOUDS BELOW 12000 FEET
WITH NO SIGNIFICANT WEATHER AND/OR OBSTRUCTIONS TO VISIBILITY

IDZ012-014-221300-
SOUTHWEST IDAHO


CITY           SKY/WX    TMP DP  RH WIND       PRES   REMARKS
BOISE          LGT RAIN  39  39 100 CALM      30.09S FOG
CALDWELL       CLOUDY    41  36  81 S7        30.11F
MOUNTAIN HOME  LGT RAIN  39  39 100 W8        30.08S VSB 3/4 WCI  34
$$

IDZ016-017-221300-
SOUTHCENTRAL IDAHO


CITY           SKY/WX    TMP DP  RH WIND       PRES   REMARKS
BURLEY         CLOUDY    37  34  89 W15G24    29.98F WCI  28
JEROME         FOG       35  34  96 SW16G24   30.02F VSB 3/4 WCI  25
TWIN FALLS     CLOUDY    40  36  86 W15       30.03F WCI  32
$$

IDZ019>023-221300-
SOUTHEAST IDAHO


CITY           SKY/WX    TMP DP  RH WIND       PRES   REMARKS
IDAHO FALLS    CLOUDY    33  31  92 S16       29.92S WCI  23
POCATELLO      CLOUDY    35  34  96 W14       29.97F WCI  26
REXBURG        CLOUDY    32  30  92 SW12      29.90R WCI  23
$$

IDZ006-010-011-018-031-032-221300-
CENTRAL IDAHO MOUNTAINS


CITY           SKY/WX    TMP DP  RH WIND       PRES   REMARKS
MCCALL         FLURRIES  31  30  96 NW5       30.01S WCI  26
HAILEY         MOCLDY    30  27  86 NW6       29.96S WCI  24
STANLEY          N/A     30  25  81 VRB3      29.96F
SALMON         CLOUDY    34  30  86 S6        29.96S WCI  29
CHALLIS        LGT SNOW  32  31  96 N5        29.95R FOG     WCI  27
$$

IDZ002-004-006-007-026-221300-
NORTHERN IDAHO


CITY           SKY/WX    TMP DP  RH WIND       PRES   REMARKS
LEWISTON       CLOUDY    46  35  65 S7        30.05S
LOWELL           N/A     40  39  97 CALM      30.07S
COEUR D`ALENE  CLEAR     36  28  75 CALM      29.99R
MULLAN PASS    CLOUDY    25  24  96 VRB5      29.89R WCI  19
$$



USA.gov is the U.S. government's official web portal to all federal, state and local government web resources and services.